Columbus Municipal Airport
KOLU : now visible

Airfield :











YOU CAN JOIN US ON...

 
LOGIN :

Register | Disclaimer

   EN    FR    IT 

 









Legend :    VFR   Marginal VFR   IFR   Intensive IFR   Very Intensive IFR
Visi :
Ceiling :
>= 8 km
>= 3000ft
5 to 8 km
1000 to 3000 ft
1500m to 5 km
500 to 1000 ft
800 to 1500m
200 to 500 ft
< 800m
< 200 ft
Symbols :   Thunderstorms  Fog  Heavy snow  Heavy precipitations  Wind > 20 kt






- Airport Elevation : 1447 ft


KOLU - Columbus Municipal

CURRENT METAR :
  • 241722Z AUTO 33009KT 10SM SCT021 02/M03 A3021 RMK AO2 FZRANO

EXPIRED METARs :
  • 241656Z AUTO 33014KT 10SM BKN019 01/M03 A3020 RMK AO2 SLP240 T00111028 FZRANO
  • 241556Z AUTO 34013G21KT 10SM OVC019 01/M03 A3018 RMK AO2 SLP233 T00061033 FZRANO
  • 241456Z AUTO 34013KT 10SM OVC021 01/M03 A3013 RMK AO2 PRESRR SLP216 T00111028 53031 FZRANO

TAF N/A
KZMP FIR / North America



MET'MAP, your aeronautical weather chart ! - Copyright ORBIFLY December 2007 - Disclaimer

ORBIFLY MET'MAP TEAM :

Programming & Development : Alexandra Zaïnal
Concept & original design : Baudouin d'Aumeries
Assistance for programming : Marc-Olivier Méhu
Technical & hardware support : Manuel Goepfert

Contact : metmap@orbifly.com




SOURCES & CREDITS :

   NOAA       Earth
Advisory